USA 148

Last updated on Thu Nov 21 2024 00:02:40 GMT+0000 (Coordinated Universal Time)

1 26052U 00001A 24325.22916203 .00000036 00000+0 00000+0 0 9994 2 26052 10.9656 36.6346 0003646 231.2550 54.6059 1.00272286 27207
UTC large
Height (km)
Speed (km/s)
/
Latitude / Longitude
Inclination (degrees)
Orbital Period (minutes)
Azimuth
Elevation
Range (km)
Doppler Factor

Next 0 passes for location: London (51.5072 / 0.1276)

Sorry there are no passes over London.